| time (UTC) | temp C | wind direction | speed KPH | gust KPH | rain 1hr cm | rain 24hr cm | rain mn cm | humidity % | barometer mb |
| 20260502152004 | 7 | 293 | 6.4 | 11.3 | 0.00 | 0.00 | 0.00 | 48 | 1018.6 |
| 20260502150501 | 6 | 45 | 4.8 | 6.4 | 0.00 | 0.00 | 0.00 | 50 | 1018.5 |
| 20260502130433 | 5 | 315 | 3.2 | 6.4 | 0.00 | 0.00 | 0.00 | 70 | 1018.7 |
| 20260502123428 | 4 | 263 | 3.2 | 9.7 | 0.00 | 0.00 | 0.00 | 75 | 1018.6 |
| 20260502121925 | 4 | 20 | 0.0 | 3.2 | 0.00 | 0.00 | 0.00 | 79 | 1018.7 |
| 20260502120422 | 3 | 297 | 1.6 | 3.2 | 0.00 | 0.00 | 0.00 | 80 | 1018.4 |
| 20260502114918 | 3 | 229 | 1.6 | 1.6 | 0.00 | 0.00 | 0.00 | 81 | 1018.4 |
| 20260502113415 | 2 | 221 | 0.0 | 0.0 | 0.00 | 0.00 | 0.00 | 90 | 1018.3 |
| 20260502111914 | 1 | 201 | 0.0 | 0.0 | 0.00 | 0.00 | 0.00 | 94 | 1018.1 |
| 20260502110411 | 0 | 200 | 0.0 | 0.0 | 0.00 | 0.00 | 0.00 | 93 | 1018.0 |
| 20260502104909 | 0 | 191 | 0.0 | 0.0 | 0.00 | 0.00 | 0.00 | 92 | 1018.1 |
| 20260502103407 | 0 | 177 | 0.0 | 0.0 | 0.00 | 0.00 | 0.00 | 90 | 1018.2 |
| 20260502101903 | 1 | 177 | 0.0 | 0.0 | 0.00 | 0.00 | 0.00 | 90 | 1017.9 |
| 20260502100359 | 1 | 177 | 0.0 | 0.0 | 0.00 | 0.00 | 0.00 | 89 | 1017.9 |
| 20260502090349 | 1 | 176 | 0.0 | 0.0 | 0.00 | 0.00 | 0.00 | 85 | 1017.7 |
| 20260502070338 | 2 | 44 | 0.0 | 0.0 | 0.00 | 0.00 | 0.00 | 82 | 1017.4 |
| 20260502064838 | 2 | 38 | 0.0 | 1.6 | 0.00 | 0.00 | 0.00 | 82 | 1017.4 |
| 20260502063336 | 2 | 36 | 0.0 | 0.0 | 0.00 | 0.00 | 0.00 | 82 | 1017.8 |
| 20260502061836 | 2 | 51 | 0.0 | 1.6 | 0.00 | 0.00 | 0.00 | 82 | 1017.6 |
| 20260502060335 | 3 | 72 | 0.0 | 1.6 | 0.00 | 0.00 | 0.00 | 81 | 1017.9 |
| 20260502054831 | 3 | 117 | 0.0 | 4.8 | 0.00 | 0.00 | 0.00 | 80 | 1017.9 |
| 20260502053328 | 3 | 90 | 0.0 | 0.0 | 0.00 | 0.00 | 0.00 | 78 | 1017.9 |
| 20260502051827 | 3 | 120 | 0.0 | 1.6 | 0.00 | 0.00 | 0.00 | 77 | 1018.0 |
| 20260502050323 | 3 | 135 | 1.6 | 3.2 | 0.00 | 0.00 | 0.00 | 76 | 1017.8 |
| 20260502044820 | 3 | 112 | 0.0 | 0.0 | 0.00 | 0.00 | 0.00 | 76 | 1017.7 |
| 20260502043317 | 3 | 99 | 0.0 | 3.2 | 0.00 | 0.00 | 0.00 | 75 | 1017.5 |
| 20260502041817 | 3 | 236 | 0.0 | 3.2 | 0.00 | 0.00 | 0.00 | 75 | 1017.5 |
| 20260502040314 | 3 | 67 | 3.2 | 4.8 | 0.00 | 0.00 | 0.00 | 75 | 1017.4 |
| 20260502034810 | 3 | 26 | 0.0 | 3.2 | 0.00 | 0.05 | 0.05 | 74 | 1017.4 |
| 20260502033309 | 4 | 24 | 1.6 | 9.7 | 0.00 | 0.05 | 0.05 | 71 | 1017.2 |
| 20260502031806 | 5 | 347 | 1.6 | 6.4 | 0.00 | 0.05 | 0.05 | 69 | 1017.2 |
| 20260502030306 | 5 | 267 | 3.2 | 6.4 | 0.00 | 0.05 | 0.05 | 61 | 1016.9 |
| 20260502024804 | 6 | 271 | 0.0 | 3.2 | 0.00 | 0.05 | 0.05 | 62 | 1017.0 |
| 20260502023303 | 6 | 329 | 0.0 | 3.2 | 0.00 | 0.05 | 0.05 | 61 | 1017.0 |
| 20260502021759 | 6 | 315 | 3.2 | 4.8 | 0.00 | 0.05 | 0.05 | 61 | 1017.0 |
| 20260502020257 | 6 | 326 | 0.0 | 6.4 | 0.00 | 0.05 | 0.05 | 63 | 1016.6 |
| 20260502014754 | 6 | 263 | 4.8 | 9.7 | 0.00 | 0.05 | 0.05 | 63 | 1016.5 |
| 20260502013254 | 6 | 292 | 3.2 | 4.8 | 0.00 | 0.05 | 0.05 | 63 | 1016.3 |
| 20260502011752 | 6 | 317 | 3.2 | 4.8 | 0.00 | 0.05 | 0.05 | 62 | 1016.3 |
| 20260502010247 | 6 | 261 | 4.8 | 4.8 | 0.00 | 0.05 | 0.05 | 62 | 1016.2 |
| 20260502004745 | 6 | 23 | 0.0 | 1.6 | 0.00 | 0.05 | 0.05 | 62 | 1016.0 |
| 20260502003242 | 6 | 314 | 3.2 | 4.8 | 0.00 | 0.05 | 0.05 | 62 | 1016.1 |
| 20260502001738 | 6 | 274 | 0.0 | 1.6 | 0.00 | 0.05 | 0.05 | 63 | 1015.9 |
| 20260502000240 | 6 | 256 | 0.0 | 3.2 | 0.00 | 0.05 | 0.05 | 63 | 1015.8 |
| 20260501234736 | 6 | 277 | 0.0 | 1.6 | 0.00 | 0.05 | 0.05 | 63 | 1015.8 |
| 20260501233235 | 7 | 247 | 0.0 | 1.6 | 0.00 | 0.05 | 0.05 | 65 | 1015.6 |
| 20260501231731 | 7 | 265 | 1.6 | 9.7 | 0.00 | 0.05 | 0.05 | 63 | 1015.7 |
| 20260501230225 | 7 | 297 | 1.6 | 3.2 | 0.00 | 0.05 | 0.05 | 65 | 1015.7 |
| 20260501224721 | 7 | 327 | 3.2 | 6.4 | 0.00 | 0.05 | 0.05 | 63 | 1015.6 |
| 20260501223217 | 7 | 17 | 0.0 | 3.2 | 0.00 | 0.05 | 0.05 | 61 | 1015.7 |
| 20260501221713 | 7 | 212 | 0.0 | 3.2 | 0.00 | 0.05 | 0.05 | 65 | 1015.4 |
| 20260501220211 | 8 | 276 | 3.2 | 6.4 | 0.00 | 0.05 | 0.05 | 56 | 1015.3 |
| 20260501214710 | 8 | 49 | 0.0 | 4.8 | 0.00 | 0.05 | 0.05 | 56 | 1015.0 |
| 20260501213205 | 8 | 333 | 4.8 | 11.3 | 0.00 | 0.05 | 0.05 | 53 | 1014.9 |
| 20260501211701 | 8 | 224 | 3.2 | 6.4 | 0.00 | 0.05 | 0.05 | 54 | 1014.7 |
| 20260501210158 | 8 | 287 | 3.2 | 6.4 | 0.00 | 0.05 | 0.05 | 55 | 1014.9 |
| 20260501204654 | 8 | 52 | 1.6 | 4.8 | 0.00 | 0.05 | 0.05 | 56 | 1014.7 |
| 20260501203150 | 10 | 291 | 1.6 | 4.8 | 0.00 | 0.05 | 0.05 | 54 | 1014.7 |
| 20260501201646 | 10 | 271 | 0.0 | 9.7 | 0.00 | 0.05 | 0.05 | 58 | 1014.6 |
| 20260501200143 | 8 | 226 | 4.8 | 6.4 | 0.00 | 0.05 | 0.05 | 54 | 1014.7 |
| 20260501194643 | 8 | 169 | 1.6 | 6.4 | 0.00 | 0.05 | 0.05 | 57 | 1014.6 |
| 20260501193140 | 9 | 260 | 1.6 | 6.4 | 0.00 | 0.05 | 0.05 | 55 | 1014.4 |
| 20260501191637 | 10 | 295 | 3.2 | 6.4 | 0.00 | 0.05 | 0.05 | 52 | 1014.6 |
| 20260501190137 | 9 | 45 | 3.2 | 9.7 | 0.00 | 0.05 | 0.05 | 53 | 1014.3 |
| 20260501184632 | 9 | 271 | 3.2 | 6.4 | 0.00 | 0.05 | 0.05 | 53 | 1014.1 |
| 20260501183132 | 10 | 239 | 3.2 | 6.4 | 0.00 | 0.05 | 0.05 | 51 | 1014.0 |
| 20260501181629 | 10 | 280 | 1.6 | 11.3 | 0.00 | 0.05 | 0.05 | 50 | 1014.2 |
| 20260501180125 | 10 | 247 | 1.6 | 4.8 | 0.00 | 0.05 | 0.05 | 50 | 1013.9 |
| 20260501174621 | 10 | 83 | 0.0 | 1.6 | 0.00 | 0.05 | 0.05 | 55 | 1013.9 |
| 20260501173119 | 9 | 347 | 3.2 | 6.4 | 0.00 | 0.05 | 0.05 | 54 | 1014.0 |
| 20260501171618 | 8 | 325 | 0.0 | 4.8 | 0.00 | 0.05 | 0.05 | 61 | 1014.3 |
| 20260501170115 | 8 | 312 | 3.2 | 6.4 | 0.00 | 0.05 | 0.05 | 59 | 1014.0 |
| 20260501164614 | 8 | 6 | 0.0 | 6.4 | 0.00 | 0.05 | 0.05 | 58 | 1014.3 |
| 20260501163109 | 8 | 26 | 3.2 | 6.4 | 0.00 | 0.05 | 0.05 | 60 | 1014.3 |
| 20260501161606 | 9 | 255 | 3.2 | 6.4 | 0.00 | 0.05 | 0.05 | 60 | 1014.2 |